Regional Weather Roundup
Issued by NWS

Home | Current Version | Previous Version | Graphics & Text | Print | Product List | Glossary On
Versions: 1 2 3 4 5 6 7 8 9 10 11 12 13 14 15 16 17 18 19 20 21 22 23 24 25 26 27 28 29 30 31 32 33 34 35 36 37 38 39 40 41 42 43 44 45 46 47 48 49 50
000
ASUS43 KDMX 271308
RWRIA

WEATHER ROUNDUP FOR IOWA
NATIONAL WEATHER SERVICE DES MOINES IA
800 AM CDT WED JUL 27 2016

NOTE: "FAIR" INDICATES FEW OR NO CLOUDS BELOW 12,000 FEET WITH NO
SIGNIFICANT WEATHER AND/OR OBSTRUCTIONS TO VISIBILITY.

* - THESE STATIONS ARE NOT NWS STATIONS...THUS NOT UNDER NWS
QUALITY CONTROL.  THEY ALSO DO NOT REPORT WEATHER SUCH
AS PRECIPITATION OR FOG.

IAZ001>003-012>014-020>022-031>034-043>046-271400-
   NORTHWEST IOWA

CITY           SKY/WX    TMP DP  RH WIND       PRES   REMARKS
CARROLL *      CLOUDY    70  66  88 SW5       29.98R
CHEROKEE *     CLOUDY    69  67  94 N8        29.99R
DENISON *      CLOUDY    68  66  94 SW7       29.97R
LE MARS *      CLOUDY    72  68  88 CALM      29.98S
SHELDON *      CLOUDY    70  68  94 CALM      29.98R
SIOUX CITY     CLOUDY    73  67  81 E7        29.99R
SPENCER        PTSUNNY   68  65  90 SE3       30.00R
STORM LAKE *   CLOUDY    70  66  88 W6        30.00R
$$

IAZ055>058-069>071-079>083-090>094-271400-
   SOUTHWEST IOWA

CITY           SKY/WX    TMP DP  RH WIND       PRES   REMARKS
ATLANTIC *     SUNNY     72  66  83 VRB6      29.96R
CLARINDA *       N/A     73  68  83 MISG      29.98F
COUNCIL BLFS * CLOUDY    70  68  94 S6        29.97R
CRESTON *      MOSUNNY   68  66  94 S7G13     30.00F
HARLAN  *      CLOUDY    70  66  88 CALM      30.01R
LAMONI         PTSUNNY   69  65  86 S5        30.00F
RED OAK *      SUNNY     72  68  88 S7        29.95S
SHENANDOAH *   SUNNY     72  70  94 S10       29.96R
$$

IAZ047>049-059>061-072>074-084-271400-
   CENTRAL IOWA

CITY           SKY/WX    TMP DP  RH WIND       PRES   REMARKS
AMES           MOSUNNY   68  68 100 SE6       30.00F
ANKENY *         N/A    N/A N/A N/A MISG        N/A
BOONE *        MOSUNNY   68  66  94 CALM      30.00R
CHARITON *       N/A    N/A N/A N/A MISG        N/A
DES MOINES     MOSUNNY   74  66  76 SE5       29.98F
GRINNELL*      PTSUNNY   70  66  89 CALM      30.04R
KNOXVILLE *    PTSUNNY   70  66  88 CALM      30.00S
MARSHALLTOWN   MOSUNNY   69  67  93 CALM      30.02R
NEWTON *       MOSUNNY   68  68 100 CALM      30.01S
PELLA *        CLOUDY    70  68  94 CALM      30.02S
PERRY *          N/A     69  68  98 E7        29.97F
$$

IAZ004>006-015-016-023>025-035-036-271400-
   NORTH CENTRAL IOWA

CITY           SKY/WX    TMP DP  RH WIND       PRES   REMARKS
ALGONA *       CLOUDY    70  66  88 SE3       30.01R
ESTHERVILLE    CLOUDY    67  66  97 S6        29.98F
FORT DODGE *   MOSUNNY   70  64  83 CALM      30.01R
MASON CITY     SUNNY     69  66  90 CALM      30.04R
FOREST CITY *    N/A     68  66  94 S3        30.03R
IOWA FALLS *     N/A     71  66  86 CALM      30.03S
$$

IAZ007>011-017>019-026>030-037>042-050>054-066-271400-
   NORTHEAST IOWA

CITY           SKY/WX    TMP DP  RH WIND       PRES   REMARKS
CEDAR RAPIDS   PTSUNNY   72  71  97 CALM      30.01S
CHARLES CITY * MOSUNNY   68  68 100 CALM      30.04R
CLINTON *      MOSUNNY   72  70  93 E3        30.03S
DECORAH *      PTSUNNY   70  68  94 CALM      30.02S
DUBUQUE        SUNNY     74  65  73 CALM      30.04S
MONTICELLO *   SUNNY     68  66  94 CALM      30.02S
WATERLOO       MOSUNNY   71  67  87 E3        30.01R
$$

IAZ064-065-067-068-078-271400-
   EAST CENTRAL IOWA

CITY           SKY/WX    TMP DP  RH WIND       PRES   REMARKS
DAVENPORT      SUNNY     71  67  87 SE5       30.03S
IOWA CITY      MOSUNNY   73  68  84 SE3       30.02S
MT. PLEASANT * MOSUNNY   73  72  96 CALM      30.00F
MUSCATINE *    SUNNY     72  68  88 CALM      30.01S
QUAD CITIES    SUNNY     73  67  81 E3        30.01F
$$

IAZ062-063-075>077-085>089-095>099-271400-
   SOUTHEAST IOWA

CITY           SKY/WX    TMP DP  RH WIND       PRES   REMARKS
BURLINGTON     SUNNY     75  71  87 SE3       30.00F
FAIRFIELD *    PTSUNNY   72  68  88 CALM      30.00F
KEOKUK *       MOSUNNY   75  72  88 E3        30.00S FOG
CENTERVILLE *    N/A     70  66  88 CALM      30.03S
WASHINGTON *   MOSUNNY   72  70  94 CALM      30.02F
$$

ABBREVIATIONS USED IN REMARKS
   TC - TEMPERATURES IN CELSIUS
  WCI - WIND CHILL INDEX
   HX - HEAT INDEX
  VSB - VISIBILITY
$$





USA.gov is the U.S. government's official web portal to all federal, state and local government web resources and services.